RH
92 98 99 98 98 95 86 91 79 82 93 98 97 96 95 98 100 69 41 64 39 36 46 57 83 88 96 98 80 66 57 46 60 43 76 60 50 46 43 31 29 34 51 62 70 67 69
97 95 100 96 97 99 100 99 86 53 86 94 98 96 72 53 47 26 25 46 35 41 44 54 84 92 100 91 69 66 63 48 45 44 80 56 50 39 31 28 30 38 49 63 66 66 74
91 100 92 96 92 93 93 94 86 51 45 77 96 96 29 20 17 11 18 42 27 35 35 58 84 93 99 84 77 76 67 84 55 38 72 52 46 37 31 39 42 48 60 58 62 67 66
86 91 83 85 84 78 85 88 84 88 61 20 25 67 57 30 20 9 25 33 29 41 51 77 92 98 97 80 73 72 71 89 82 55 62 56 44 37 32 41 44 47 54 71 61 59 65
81 71 74 66 65 50 66 70 67 72 55 9 6 22 40 37 16 17 33 38 71 75 87 92 95 92 89 76 66 66 79 81 71 63 59 49 46 41 41 50 55 52 63 54 69 56 66
56 61 46 39 44 40 41 36 35 38 22 5 15 36 34 27 17 39 72 87 87 93 95 99 96 97 75 61 58 67 80 77 71 61 62 52 50 52 51 52 70 56 52 41 64 62 67
28 41 44 30 37 45 23 17 16 13 14 23 39 35 12 24 24 64 87 96 89 90 98 76 66 66 56 67 56 79 76 73 65 65 65 54 64 62 52 45 36 32 40 42 47 53 64
12 26 39 42 35 23 22 9 8 9 14 36 41 16 9 14 36 79 93 96 96 96 86 71 74 74 68 71 64 73 74 67 63 66 50 54 66 42 36 34 37 36 36 37 55 51 58
15 15 30 38 31 14 8 6 6 7 15 36 35 10 10 13 62 92 93 85 87 90 81 54 70 71 67 68 56 68 68 62 56 61 54 51 44 36 36 36 37 38 40 37 55 57 52
15 27 20 24 14 10 6 4 4 6 12 38 39 22 17 31 80 91 86 86 87 90 79 60 63 63 65 68 54 57 64 51 44 56 44 45 34 38 40 41 35 43 33 36 62 65 75
18 27 27 23 11 7 5 4 3 4 8 27 44 34 21 23 78 85 86 81 84 89 81 49 62 69 63 56 60 59 66 61 56 42 44 46 41 44 45 40 34 40 36 38 58 63 53
35 31 19 17 10 8 5 4 3 3 4 15 41 50 46 53 73 78 57 78 88 89 83 56 51 59 56 60 49 69 71 65 50 54 40 40 31 35 35 33 37 35 41 48 55 62 88
38 38 33 15 10 8 5 4 4 3 2 7 30 50 56 57 86 58 73 84 86 78 30 53 53 47 50 52 54 62 76 77 68 79 76 49 42 37 33 45 45 51 56 87 92 94 83
50 30 35 25 11 8 6 5 4 4 3 3 20 45 54 61 64 61 78 81 81 39 37 44 45 49 56 45 50 52 78 96 65 53 59 81 79 48 39 42 48 52 52 69 71 68 60
32 44 29 26 14 9 6 5 4 4 4 3 17 56 61 73 63 71 94 82 52 54 50 55 50 54 54 46 52 73 88 77 88 75 90 79 66 38 37 36 38 54 62 42 50 44 54
46 63 32 26 19 16 7 5 4 4 4 5 21 67 75 69 64 67 78 61 46 49 52 49 59 40 52 66 95 93 93 81 72 76 76 97 96 48 40 41 39 49 43 65 61 82 72
68 59 40 39 24 18 8 5 4 4 4 5 32 61 73 58 66 87 75 50 44 42 51 52 52 56 55 62 65 79 81 85 78 78 78 97 100 83 52 56 61 51 53 50 49 56 66
87 66 68 57 36 35 11 5 4 4 4 10 23 56 64 58 80 61 62 50 54 46 46 50 45 47 58 55 83 77 91 83 85 82 98 98 100 98 87 60 50 45 49 49 64 65 58
64 59 56 66 40 50 23 8 6 5 5 6 44 30 49 67 69 52 43 50 50 53 48 44 48 45 46 59 90 78 70 80 81 83 100 99 99 98 100 96 86 78 88 61 58 67 67
70 79 72 76 46 59 35 11 7 6 6 9 32 37 55 71 55 55 46 38 39 53 53 48 51 50 58 63 58 87 74 88 88 84 97 99 99 97 94 96 98 98 91 79 72 98 78
90 90 87 83 59 75 47 19 9 6 6 12 30 39 40 29 41 46 36 41 39 39 45 43 44 48 51 81 75 71 56 62 84 88 99 100 98 96 90 83 99 97 96 98 95 86 88
95 77 97 85 71 97 75 50 10 8 7 20 52 47 36 30 26 28 26 24 26 30 38 37 48 40 36 48 46 58 66 69 78 92 85 99 96 97 93 79 98 97 98 97 99 97 85
86 93 98 93 78 96 97 92 48 25 12 38 33 48 52 30 26 27 27 30 42 42 35 31 44 47 46 43 55 52 50 56 78 87 88 95 92 94 84 89 96 97 87 86 83 96 96
98 98 100 96 98 86 88 99 90 96 58 66 47 52 51 28 26 24 34 40 45 40 46 37 38 41 35 42 52 45 41 41 56 71 83 91 90 90 92 95 95 72 80 83 92 95 96
71 93 95 97 89 77 91 98 98 98 98 85 78 73 66 48 28 27 35 42 39 35 37 42 35 42 56 56 59 51 39 43 50 49 67 85 90 92 97 96 73 88 93 95 93 98 96
88 97 95 81 61 84 97 98 98 93 99 90 98 76 88 66 53 56 48 42 54 53 44 31 47 45 56 63 52 81 80 42 68 87 65 75 88 93 95 99 88 95 91 88 94 97 96
90 92 66 48 95 95 97 96 98 96 98 96 95 91 84 78 65 59 60 71 60 60 60 46 60 56 52 65 67 80 73 47 65 69 95 95 95 93 86 89 91 97 92 91 99 94 97
89 59 44 98 92 94 97 92 98 91 98 96 96 93 84 84 75 78 81 77 71 72 79 59 61 74 72 81 76 72 83 74 85 76 93 97 98 96 89 93 90 94 91 97 99 99 98
86 50 67 79 88 98 88 91 94 96 93 93 100 97 94 96 88 82 83 79 79 86 82 72 67 65 85 87 92 92 94 93 96 96 58 94 95 96 96 98 98 97 98 96 98 96 99
Wind_Speed
17 18 18 18 18 20 20 20 20 20 20 22 21 20 19 17 17 15 10 11 8 7 4 3 4 4 6 5 10 7 7 8 22 22 20 22 24 21 14 15 18 9 8 7 9 17 16
17 18 19 20 21 20 21 21 21 19 21 21 22 22 20 18 16 14 9 8 6 6 6 4 4 6 6 5 3 6 9 5 23 26 21 24 20 20 15 11 12 13 15 15 10 9 8
17 18 18 19 19 19 20 21 21 21 20 21 22 21 20 17 15 11 9 6 4 5 5 5 5 6 9 12 1 10 4 8 20 24 18 21 18 18 13 5 12 24 12 9 10 12 5
15 18 18 18 19 20 22 23 23 22 22 20 21 21 20 16 13 10 5 2 2 3 4 5 7 7 6 8 13 12 4 6 17 19 16 16 16 11 9 16 8 6 7 6 11 13 11
16 17 18 19 20 21 22 23 24 23 21 20 19 18 18 15 10 4 2 2 3 2 3 6 7 5 7 3 5 3 6 10 13 16 15 14 13 6 7 7 3 7 5 11 8 17 8
15 16 18 19 21 21 22 23 25 24 22 19 17 18 19 14 6 3 6 6 9 8 8 5 2 4 6 2 2 5 7 9 14 17 12 12 8 4 4 8 9 9 14 8 9 13 8
15 16 18 20 21 21 22 23 24 26 22 19 19 20 19 13 3 7 9 7 1 1 7 7 2 4 2 2 2 6 9 13 15 16 9 14 9 14 14 14 12 12 13 14 7 11 9
15 17 19 20 21 21 22 22 22 24 20 19 20 20 17 10 6 9 8 5 5 5 8 18 14 8 3 3 3 7 14 12 14 13 14 9 17 12 14 15 17 16 13 2 9 7 7
14 16 18 20 21 21 21 21 21 22 19 18 19 17 14 7 8 5 3 1 3 6 5 4 18 15 6 6 5 13 18 17 10 14 16 11 11 18 15 14 15 15 12 6 5 7 3
15 17 18 19 19 21 21 21 21 20 19 17 18 15 10 7 6 1 2 5 3 7 4 6 4 4 11 6 6 13 22 11 7 14 14 15 15 19 18 15 13 14 9 10 15 7 4
15 17 18 19 19 19 20 21 21 19 18 15 14 14 10 5 4 3 7 5 3 3 3 3 5 4 3 8 5 8 17 16 6 11 10 8 8 11 15 18 12 12 3 10 10 6 3
15 17 18 19 19 20 19 19 20 20 18 15 11 10 8 7 6 6 6 2 4 3 3 4 5 7 6 14 5 4 11 11 6 9 10 13 9 5 14 10 10 5 3 5 6 3 6
15 17 19 19 19 19 20 19 20 20 18 15 11 9 8 5 2 6 3 3 3 4 2 5 1 4 8 7 11 8 9 10 8 5 8 11 14 5 8 8 9 7 9 3 4 5 6
14 17 18 19 19 19 19 19 19 20 20 15 11 8 7 4 4 1 3 3 5 1 4 3 3 5 5 7 11 12 5 4 17 13 4 11 10 19 11 13 14 15 15 6 8 8 6
14 15 17 19 20 20 19 18 19 19 19 16 10 9 7 4 2 3 2 4 4 6 4 7 10 9 10 12 2 1 5 11 8 18 8 6 12 7 17 13 17 11 19 15 9 12 3
12 14 16 18 19 21 20 19 19 18 18 14 8 5 7 8 3 5 4 6 4 3 5 5 5 4 8 3 1 2 4 3 10 12 14 3 4 6 14 15 17 13 8 9 9 7 14
11 14 17 18 19 21 21 20 19 18 16 11 6 4 5 3 5 5 5 5 3 3 3 5 8 12 8 4 3 3 4 4 5 5 13 7 5 2 2 14 20 13 12 10 7 12 7
12 15 17 19 20 21 21 19 19 19 15 10 2 3 1 2 4 5 5 3 5 5 5 5 5 8 9 10 5 5 7 6 5 4 4 1 4 9 15 4 5 15 21 19 9 13 15
13 14 16 17 20 22 21 18 18 18 16 11 3 5 3 5 3 4 3 4 5 4 7 4 5 5 8 6 4 5 6 4 2 0 3 3 3 3 4 1 3 5 9 17 21 3 15
11 14 16 17 20 21 21 18 17 16 13 9 4 2 4 6 7 4 6 6 3 4 4 5 7 7 7 9 7 5 3 1 1 1 2 0 3 7 8 4 1 5 11 18 19 7 18
10 12 16 17 19 21 21 19 17 14 11 6 2 1 1 2 0 3 4 5 7 5 6 3 5 8 6 3 6 5 6 4 4 2 1 2 4 3 10 11 8 8 10 14 21 21 11
10 14 13 15 18 19 21 22 16 13 9 3 3 4 4 5 3 4 4 4 5 5 1 6 7 8 9 6 7 9 6 2 4 2 1 2 4 3 5 7 5 6 10 12 10 18 19
12 11 12 14 17 16 19 23 22 16 10 5 6 6 2 4 3 2 1 3 4 4 6 5 5 6 8 6 11 13 13 13 7 3 2 3 3 3 7 2 3 6 8 12 6 5 8
9 11 11 14 15 17 16 20 22 20 15 8 10 5 5 4 2 3 2 3 5 7 6 10 13 6 6 17 17 18 22 23 16 14 13 4 5 3 4 1 7 4 2 2 1 3 5
10 9 13 14 16 15 15 18 20 17 16 11 12 5 5 4 8 7 5 2 9 12 10 13 8 8 12 11 4 5 4 4 10 19 14 14 4 4 3 5 7 1 3 1 3 1 3
6 8 11 14 17 15 16 17 19 19 14 10 9 9 3 7 2 4 5 6 2 4 6 7 2 8 6 3 4 5 4 4 4 2 5 7 11 7 2 4 6 1 2 7 3 3 5
6 8 13 14 15 14 15 18 16 19 16 9 9 8 5 7 3 5 3 4 5 4 4 8 6 6 5 3 6 4 8 8 5 5 5 3 5 14 13 8 3 3 7 8 3 2 3
7 11 13 11 13 13 14 17 17 19 16 9 11 10 6 5 11 6 4 3 4 3 2 9 6 1 3 3 3 4 3 3 2 3 2 3 3 4 6 6 10 8 5 1 3 7 10
11 10 9 9 14 16 18 18 16 17 15 9 8 7 10 9 9 15 15 13 10 9 5 2 6 6 5 3 4 4 3 3 3 2 3 3 1 1 1 2 2 6 2 1 3 6 11
Wind_Direction
11 10 11 7 3 4 1 358 354 350 348 345 341 334 334 327 325 320 313 290 292 257 236 232 228 230 206 213 257 296 296 276 201 194 187 203 206 193 219 193 190 174 126 93 108 99 84
13 9 7 7 4 4 359 359 350 348 345 341 335 334 333 332 329 323 313 296 288 242 220 217 206 237 225 251 251 284 288 263 193 188 190 203 211 197 216 239 218 122 125 128 132 111 122
7 8 10 8 6 2 358 355 350 349 345 341 336 332 334 335 331 330 311 294 246 235 241 223 191 226 237 233 104 304 317 236 193 190 198 202 204 216 231 108 85 121 123 124 148 157 132
9 6 6 8 5 1 1 356 353 348 346 343 339 336 334 334 335 329 320 299 247 218 216 195 192 202 247 258 255 281 279 194 169 191 190 199 218 237 250 125 117 161 144 157 175 173 163
9 6 4 7 2 4 0 357 355 352 348 346 346 344 338 335 336 360 3 63 69 72 137 160 174 196 280 278 287 262 192 179 172 187 192 201 220 212 122 147 149 225 187 219 169 192 145
13 8 5 5 2 0 359 357 358 355 352 352 351 346 341 335 347 96 88 79 91 90 109 135 241 225 241 265 244 163 166 180 176 177 199 192 208 143 195 194 195 191 227 239 164 184 161
15 8 2 0 358 356 356 355 358 360 359 359 352 348 343 336 113 134 108 86 47 114 203 215 250 226 66 278 143 168 171 164 175 177 190 190 204 200 196 211 235 221 199 224 73 171 168
6 2 358 357 357 355 355 355 359 1 1 358 353 354 353 353 131 133 96 29 53 342 297 247 240 246 232 206 192 182 170 171 195 194 205 178 217 203 225 211 226 252 265 260 84 149 199
353 356 356 356 355 354 355 354 356 359 1 359 358 4 12 45 104 123 51 137 23 351 265 249 217 225 205 221 245 184 182 204 195 205 211 203 208 227 216 229 219 236 249 235 151 144 273
346 350 353 355 355 354 355 355 354 354 357 358 0 5 20 79 59 293 338 282 345 358 278 146 186 259 205 210 244 205 193 192 215 214 218 236 223 204 234 229 225 230 233 260 137 138 214
343 345 349 351 354 354 354 355 352 349 349 351 360 4 17 4 86 17 268 243 308 2 304 149 139 166 186 203 127 192 199 220 250 227 213 218 222 242 217 228 220 235 6 238 154 198 299
343 343 346 348 349 349 352 352 351 348 342 340 346 353 6 13 24 268 276 273 2 239 246 125 126 185 179 215 240 139 188 220 252 275 251 253 221 233 228 235 217 214 78 33 127 173 245
341 342 344 345 346 344 344 347 346 346 341 331 328 334 344 350 267 292 175 2 277 243 135 136 196 180 221 203 224 185 200 197 212 200 238 238 238 238 256 214 203 189 145 164 219 205 237
338 339 342 342 344 342 341 341 341 340 341 330 316 318 315 343 327 251 126 259 262 358 31 55 265 268 244 227 216 205 167 241 229 226 272 214 230 214 198 216 204 198 183 189 207 220 233
333 340 340 341 342 339 340 339 339 339 339 334 318 316 322 318 299 190 283 243 310 24 6 344 305 254 258 227 214 48 252 249 212 230 217 222 227 189 187 191 202 187 214 212 277 283 276
339 340 338 343 342 340 338 338 337 339 339 336 322 297 260 295 212 176 240 249 304 52 346 302 284 301 313 59 211 304 196 250 233 204 211 287 274 256 190 191 228 194 160 205 226 237 247
339 337 342 343 342 341 337 337 336 340 341 334 334 279 228 281 179 203 236 257 358 8 0 294 297 310 304 329 294 248 235 280 13 319 204 179 231 279 115 204 202 202 193 211 202 221 224
337 342 344 344 344 342 341 337 338 341 347 341 301 250 264 194 233 210 239 308 9 285 231 258 284 285 272 287 207 237 221 223 149 178 298 92 254 219 208 346 301 241 215 213 217 204 225
330 337 343 345 344 345 345 341 340 345 346 349 300 295 301 191 262 265 249 199 213 281 274 265 280 302 326 314 320 273 273 82 89 77 303 354 261 284 185 190 294 231 216 228 237 263 221
338 342 345 347 347 345 345 346 344 345 345 340 315 275 191 203 273 293 315 291 278 185 252 277 277 301 279 279 270 257 242 90 67 210 267 206 265 232 268 311 258 257 233 220 218 224 228
344 340 342 347 348 346 348 348 348 346 344 344 282 11 287 289 196 325 298 292 289 285 207 209 271 243 267 298 339 287 307 358 182 112 42 263 271 264 261 272 218 227 245 256 229 225 211
321 329 340 342 347 351 352 350 355 353 348 0 359 359 327 280 310 265 229 253 258 307 289 275 242 320 328 290 274 300 6 27 243 130 253 206 280 291 271 252 223 247 234 237 252 241 243
320 340 343 343 344 346 355 352 356 2 7 21 358 342 341 269 187 199 284 350 26 43 286 285 4 329 298 321 333 308 299 277 247 264 237 193 271 304 271 154 284 267 228 218 221 191 231
342 338 344 346 350 352 356 353 356 5 12 18 359 345 306 287 195 253 55 12 302 302 290 304 320 313 299 313 311 288 263 251 237 239 208 230 212 237 273 161 242 232 98 155 265 54 16
334 353 348 353 348 350 357 351 350 0 358 11 357 4 326 289 334 308 321 345 310 291 260 251 292 299 325 319 279 269 241 235 233 231 218 205 202 264 224 217 288 272 18 50 155 106 15
354 330 338 338 338 360 357 345 347 354 351 351 332 346 335 309 21 360 336 304 295 320 314 292 96 313 303 259 258 226 245 277 247 278 8 172 205 234 227 221 226 24 40 358 298 250 353
315 314 335 339 357 355 347 345 346 342 346 335 311 330 334 279 316 358 352 337 351 322 276 293 354 321 255 249 256 258 264 288 270 282 182 176 219 223 233 245 284 326 322 329 180 221 60
320 332 341 2 355 357 345 350 347 337 343 327 310 308 321 273 291 292 291 296 302 230 275 349 330 69 289 252 250 251 245 244 294 179 194 219 235 194 220 239 253 358 322 172 353 40 134
325 328 358 1 359 360 354 349 339 331 334 312 304 305 310 264 269 291 283 266 260 249 277 301 301 306 336 298 9 329 329 300 24 288 39 270 162 256 349 290 18 343 323 325 5 124 118